Temperature
26 23 22 23 24 24 25 25 25 26 27 26 24 23 23 22 22 21 21 20 20 20 20 20 19 19 19 18 18 18 18 18 19 18 18 18 18 18 18 18 18 18 17 17
23 22 24 26 26 26 26 25 25 26 27 25 23 23 22 22 21 21 21 20 20 20 19 19 19 19 19 18 18 18 18 18 18 18 18 18 18 18 18 18 17 17 17 17
23 24 26 27 27 27 26 26 26 26 26 24 23 21 21 21 21 21 21 21 20 20 19 19 19 18 18 18 18 18 18 18 18 18 18 18 18 18 17 17 17 17 17 17
24 25 27 27 27 27 25 27 27 26 24 21 22 20 20 20 20 20 20 20 20 19 19 19 19 18 18 18 18 18 18 18 18 18 18 18 18 18 18 18 17 17 17 17
24 26 26 26 27 28 26 27 26 25 22 20 20 20 20 19 19 20 20 20 20 20 19 19 19 19 18 18 18 18 18 18 18 18 18 18 18 18 18 17 17 17 17 16
25 26 27 27 28 28 27 25 23 20 19 20 20 20 19 19 19 20 20 20 20 20 19 19 19 18 18 18 18 18 18 18 18 18 18 18 18 18 17 17 17 17 16 16
24 25 27 27 26 27 26 23 21 21 19 19 19 19 19 20 21 20 20 20 20 20 19 19 19 18 18 18 18 18 18 18 18 18 18 18 18 18 17 17 17 17 16 16
22 23 25 26 26 25 24 23 21 21 20 19 19 19 19 21 21 21 21 21 20 20 19 19 19 19 18 18 18 18 18 18 18 18 18 18 18 17 17 17 17 17 17 17
22 23 26 27 27 26 24 23 21 20 20 19 18 19 19 21 21 21 21 20 20 20 20 19 19 19 19 19 18 18 18 18 18 18 18 18 17 17 17 17 17 17 17 17
23 23 24 26 26 26 25 23 20 20 20 20 19 19 18 20 21 20 20 20 20 20 20 20 19 19 19 19 19 18 18 18 18 18 18 18 17 17 17 17 17 17 17 17
23 22 23 24 24 24 24 23 20 18 19 19 19 19 21 20 20 20 20 21 20 20 20 20 20 20 19 19 19 19 18 18 18 18 18 18 17 17 17 17 17 17 17 17
21 20 21 22 23 25 24 22 20 20 19 18 18 20 22 21 20 20 21 21 21 21 21 21 21 20 20 19 19 19 19 19 18 18 18 18 18 17 17 17 17 17 17 17
21 20 20 21 21 22 23 22 20 18 18 18 18 20 21 20 20 21 21 21 21 21 21 21 21 20 20 20 19 19 19 19 19 18 18 18 18 18 18 17 17 17 17 17
21 19 19 20 20 21 22 22 21 19 18 19 19 20 20 20 20 20 21 21 21 21 21 21 21 20 20 20 20 20 19 19 19 19 18 18 18 18 18 17 17 17 17 17
18 18 19 20 21 22 22 23 22 20 20 20 20 20 20 20 20 21 22 21 21 21 20 20 20 20 20 20 20 20 20 20 19 19 19 18 18 18 18 17 17 17 17 17
16 18 19 20 22 22 22 23 23 22 21 21 21 20 20 20 21 21 21 21 20 20 20 20 20 20 20 20 20 20 20 20 19 19 19 19 18 18 18 17 17 17 17 16
16 16 18 18 20 21 21 21 22 22 21 21 21 20 20 19 19 20 20 20 20 20 21 20 20 20 20 20 20 20 20 20 19 19 19 19 19 18 18 17 17 17 17 16
16 15 15 17 18 19 20 20 22 21 21 20 20 20 19 20 20 20 20 20 20 20 20 20 20 20 20 20 20 20 20 19 19 19 19 19 18 18 18 17 17 17 17 16
15 15 15 16 17 18 20 20 20 20 20 20 19 19 19 19 19 18 19 19 20 20 20 20 20 20 20 20 20 20 19 19 19 19 18 18 18 18 17 17 16 16 16 16
15 15 15 16 17 18 19 19 20 19 19 19 19 19 18 19 17 17 18 19 19 19 19 19 19 19 19 19 19 19 19 18 18 18 18 18 17 17 17 17 16 16 16 15
15 15 15 16 17 18 18 18 19 19 18 18 18 18 18 17 17 17 18 18 18 18 18 18 18 18 18 18 18 18 18 17 17 17 17 17 17 16 16 16 16 15 15 15
15 15 15 15 16 17 17 17 17 17 17 17 17 17 17 17 16 17 17 17 17 17 17 17 17 17 17 17 17 17 16 16 16 16 16 16 16 16 15 15 15 15 15 14
14 14 14 15 15 15 15 16 17 17 17 17 17 17 17 16 16 16 16 16 16 16 16 16 16 16 16 16 16 16 15 15 15 15 15 15 15 14 14 14 14 14 14 14
14 14 14 14 14 14 15 16 17 17 17 17 17 16 16 16 15 15 15 15 15 15 15 15 16 15 15 15 15 15 14 15 15 14 14 14 14 14 13 13 13 13 13 13
14 14 14 14 14 14 15 15 16 16 16 16 16 16 16 16 15 15 15 14 14 15 15 15 15 14 14 14 14 14 14 14 14 13 13 13 13 13 13 13 13 12 13 13
14 14 14 14 14 13 14 15 15 15 15 15 15 15 15 15 15 14 14 14 14 14 14 14 14 14 14 14 14 13 13 13 13 13 13 13 13 13 12 12 12 12 12 12
Wind_Speed
4 2 7 10 10 11 10 10 11 10 4 4 6 6 7 8 8 8 8 8 9 8 7 7 9 11 12 11 11 11 11 10 9 8 7 7 6 5 5 5 9 10 10 10
4 8 15 12 12 12 12 11 9 7 1 3 3 4 5 7 10 9 9 9 9 8 7 7 8 9 10 12 12 12 12 10 9 8 6 5 6 5 5 4 6 9 10 10
10 11 10 12 13 13 12 8 7 6 1 5 5 2 2 2 3 6 8 8 8 10 11 10 9 10 11 11 12 13 12 11 9 9 7 6 5 4 3 4 4 5 9 9
9 13 13 13 12 10 10 9 5 2 4 3 3 1 5 3 2 4 6 7 8 8 9 9 10 11 12 13 12 11 11 10 9 9 9 10 7 6 6 5 5 4 7 9
9 8 9 11 13 11 9 6 0 2 5 4 4 2 5 1 4 7 8 10 10 10 10 11 11 12 12 12 13 12 12 11 10 9 10 10 7 5 5 5 6 5 4 7
12 11 8 11 12 9 5 2 6 6 5 3 2 2 5 4 6 6 8 10 11 11 10 10 10 10 9 10 11 12 11 10 10 10 10 10 10 8 8 7 7 5 4 4
10 12 10 9 10 10 2 4 4 5 5 3 2 2 8 9 7 8 10 11 11 11 11 11 11 11 11 12 12 12 12 11 10 10 10 10 10 10 11 9 8 7 5 4
8 10 8 6 8 8 4 8 7 5 5 3 2 4 8 10 8 6 8 10 11 12 12 12 13 13 13 14 13 12 12 11 10 10 10 9 9 8 8 9 8 8 6 6
9 9 7 5 6 6 4 3 7 7 3 1 3 6 9 7 5 3 7 11 13 14 14 14 13 13 13 13 13 13 13 10 10 10 9 8 9 8 9 8 8 6 6 6
9 7 7 5 2 2 6 6 5 6 4 2 3 4 5 7 6 4 5 10 12 13 13 14 14 13 12 12 12 12 12 11 10 10 9 9 8 9 9 8 8 8 8 7
5 7 6 2 3 5 1 3 5 5 5 6 4 6 7 10 9 7 8 10 12 14 15 14 14 13 13 12 13 12 12 11 11 11 9 8 8 8 8 8 8 8 8 9
1 5 4 6 6 5 6 6 7 5 4 5 5 7 6 9 8 8 8 9 11 14 14 14 14 13 12 13 13 14 13 13 12 11 10 9 9 8 8 8 9 9 9 9
2 4 1 6 6 3 2 4 5 6 5 5 5 6 3 3 4 7 8 8 11 12 13 12 13 13 13 14 14 14 14 14 12 11 11 10 9 9 9 9 9 9 9 9
2 3 6 9 8 5 3 4 6 6 4 5 7 6 5 5 5 6 7 8 10 11 12 13 12 12 12 13 14 14 14 13 13 12 11 11 11 10 10 9 9 9 9 9
4 1 3 6 6 5 6 8 8 7 8 8 7 8 9 9 7 6 7 8 10 10 10 11 12 11 11 11 11 12 13 12 12 12 12 12 10 9 9 9 9 9 9 10
3 1 1 3 4 3 3 7 8 7 7 6 6 7 6 5 4 3 5 7 8 10 11 11 10 10 10 11 11 12 12 12 12 13 13 12 11 10 10 9 9 9 9 8
1 2 2 3 5 3 3 5 7 4 3 6 8 6 3 4 5 5 5 7 8 8 9 9 9 10 10 10 11 12 13 11 12 13 12 12 12 11 10 10 9 9 9 9
4 3 3 1 1 5 6 3 3 4 2 3 4 3 6 8 6 4 4 6 7 6 7 7 6 5 5 6 7 8 9 10 11 10 10 10 10 9 8 7 8 8 7 7
4 5 3 3 3 4 5 2 1 2 1 1 4 6 5 9 10 7 4 5 7 7 5 5 5 5 4 4 5 6 7 8 8 8 8 8 8 8 7 7 7 7 6 7
2 3 4 4 3 4 5 5 4 2 1 1 5 8 7 6 5 2 3 6 8 8 7 6 6 6 6 3 5 7 6 6 5 5 5 5 6 7 7 8 7 5 5 6
2 1 2 3 3 4 3 6 2 3 5 1 5 8 8 4 5 5 7 8 9 9 9 8 9 8 6 6 9 9 8 6 4 4 5 4 4 5 6 5 4 4 5 4
2 1 2 2 3 4 5 3 1 3 1 4 7 8 12 12 11 10 11 10 11 10 10 10 10 9 8 8 10 10 7 4 5 6 5 4 3 2 3 3 3 4 5 4
2 3 3 3 3 3 2 1 1 1 4 5 7 9 13 13 12 11 10 10 10 10 9 9 11 11 9 8 9 9 5 5 6 6 5 4 4 3 2 4 4 3 3 3
3 1 1 0 1 2 3 4 4 5 6 7 8 10 13 14 12 12 11 11 10 10 10 9 11 11 9 8 8 7 6 6 7 6 4 4 4 4 3 3 3 3 3 3
2 1 1 1 1 4 6 4 4 7 9 11 11 11 12 15 14 13 12 11 9 10 9 9 9 10 8 8 8 7 6 7 7 5 4 3 2 2 3 2 2 3 3 4
2 1 2 2 2 2 1 3 6 10 11 12 14 14 12 13 14 13 12 10 9 9 8 9 9 8 7 7 7 6 6 7 6 5 3 2 2 1 1 1 1 2 1 3
Wind_Direction
247 179 242 241 226 228 253 268 276 277 238 171 198 204 186 172 170 175 173 170 174 178 177 163 164 164 160 158 158 156 159 161 152 146 145 144 148 152 150 154 151 144 141 141
292 257 246 250 257 257 262 269 277 291 267 144 169 185 189 184 187 179 174 180 177 164 162 167 171 169 165 165 159 156 161 166 160 154 153 151 146 151 153 149 149 149 147 147
222 246 254 257 263 267 270 254 240 241 35 56 96 13 262 233 192 176 176 178 174 173 171 174 175 173 169 171 170 167 168 168 162 153 143 131 113 107 124 145 156 161 152 147
243 252 258 264 267 265 269 264 234 189 98 23 58 208 279 261 259 208 186 174 179 176 174 177 180 178 179 180 174 164 165 167 163 156 152 152 154 160 175 168 168 164 154 152
237 244 249 259 261 262 252 255 159 105 115 83 25 108 291 308 244 229 200 186 186 182 181 183 184 182 182 178 173 167 167 168 167 163 161 159 158 166 158 153 158 161 156 158
244 256 249 251 265 265 244 35 48 52 71 63 267 156 264 231 229 229 204 194 189 183 183 184 181 173 174 172 170 165 168 171 171 166 165 165 166 166 160 164 168 168 162 157
266 271 265 260 274 288 293 86 26 353 7 263 245 205 248 248 244 223 211 199 193 184 181 179 175 174 174 175 174 171 172 178 178 172 174 173 172 170 173 172 174 171 167 170
225 266 258 245 223 230 232 147 163 207 229 262 316 261 261 271 274 241 207 189 186 184 183 181 180 177 176 177 177 176 177 178 180 178 179 177 171 172 177 176 174 179 179 179
201 238 252 250 246 188 202 197 170 143 144 118 267 286 299 290 292 230 189 177 184 186 182 181 181 180 179 179 180 178 176 175 182 180 174 173 172 170 173 174 172 175 179 179
182 230 262 260 293 280 175 157 103 121 149 198 236 245 244 267 262 233 192 188 187 183 180 180 181 182 183 182 178 175 174 179 182 178 177 178 174 173 172 169 175 177 178 174
168 191 268 301 214 228 197 119 122 129 153 159 211 254 226 221 222 211 205 198 190 186 183 182 182 182 180 178 177 177 178 176 177 178 179 175 176 175 169 173 179 180 178 174
219 157 231 255 252 207 172 168 147 153 207 173 174 251 256 211 211 202 206 200 194 190 184 183 181 178 177 178 179 181 182 183 184 181 179 181 180 179 179 181 183 180 177 178
17 114 104 328 330 353 142 167 155 140 141 165 169 245 271 226 209 209 202 195 190 185 181 179 179 181 182 182 183 186 186 188 187 181 181 182 184 186 188 187 184 179 177 178
90 124 174 206 226 227 220 199 161 135 158 196 203 208 233 216 218 217 188 182 177 178 180 179 180 182 185 186 186 187 190 190 186 184 184 186 190 194 194 189 185 184 181 181
60 156 233 229 231 220 217 208 187 180 185 188 212 202 215 202 208 209 184 166 164 170 172 175 177 179 182 186 189 190 191 189 186 184 189 195 193 194 194 191 189 188 189 193
59 177 339 316 295 249 232 220 203 195 187 193 192 228 227 187 168 166 159 155 166 175 176 177 176 173 177 183 188 190 191 188 182 186 194 193 188 194 196 196 192 191 193 194
136 137 104 276 302 336 262 227 198 182 190 173 197 221 184 154 156 172 161 152 160 170 167 168 175 179 186 190 190 191 192 187 184 191 194 191 191 194 198 198 192 193 196 195
158 141 144 178 44 231 244 272 152 145 166 163 170 171 153 144 138 119 125 140 142 148 141 143 150 160 176 181 187 191 183 180 185 190 194 195 193 196 195 196 199 204 199 196
161 150 146 157 198 256 282 308 14 151 261 106 140 127 124 113 90 62 70 116 125 122 116 122 130 143 148 154 164 157 161 168 174 182 187 187 184 187 188 198 206 207 201 201
38 121 151 163 173 227 255 298 310 88 272 287 146 146 141 109 113 133 99 101 99 92 91 94 90 86 91 99 115 118 126 131 143 157 160 159 166 178 191 202 205 205 206 208
346 14 170 182 204 243 288 305 338 166 217 205 138 135 123 118 138 129 96 88 90 87 85 85 84 82 79 85 95 96 93 99 115 114 113 119 146 178 188 188 186 183 187 188
221 197 181 169 196 250 331 355 120 218 199 115 107 111 109 108 105 95 89 87 87 84 82 83 85 79 68 75 92 91 89 93 92 90 90 92 92 118 148 147 171 172 166 163
226 202 186 185 206 269 316 276 270 144 118 109 106 112 113 113 108 99 93 86 84 85 84 83 85 79 69 68 86 92 85 82 84 83 78 77 79 82 104 125 126 111 120 137
281 270 134 110 308 323 355 41 45 69 95 102 104 110 113 114 109 102 97 91 87 86 86 85 85 81 70 63 67 72 70 78 84 80 70 67 83 84 83 99 115 127 140 148
262 222 138 157 274 13 27 42 73 82 86 86 86 96 109 112 106 102 98 93 91 87 82 84 86 84 75 68 65 62 65 73 77 74 70 66 66 84 88 99 137 160 193 185
315 192 165 208 235 124 53 76 97 98 102 104 99 93 94 103 105 101 98 96 93 89 86 83 80 79 74 70 64 57 65 76 76 64 52 57 58 64 82 89 33 341 258 224
Height
1487 1493 1497 1492 1489 1490 1490 1492 1491 1481 1470 1475 1480 1482 1481 1482 1484 1486 1487 1489 1490 1492 1494 1495 1496 1498 1501 1503 1506 1509 1513 1517 1521 1525 1528 1532 1535 1538 1541 1543 1545 1546 1548 1549
1491 1494 1484 1481 1481 1482 1485 1489 1487 1478 1470 1475 1483 1485 1482 1481 1481 1483 1485 1487 1488 1490 1493 1494 1495 1497 1498 1501 1504 1508 1510 1515 1519 1523 1527 1531 1534 1537 1540 1542 1544 1545 1547 1548
1492 1483 1476 1478 1479 1481 1481 1484 1482 1480 1475 1477 1484 1493 1487 1482 1482 1483 1484 1486 1488 1489 1490 1491 1493 1495 1497 1500 1503 1506 1508 1513 1517 1521 1525 1529 1532 1535 1538 1540 1542 1544 1546 1547
1483 1475 1475 1476 1477 1476 1484 1470 1470 1473 1485 1497 1493 1508 1494 1487 1485 1483 1484 1486 1487 1488 1489 1491 1492 1493 1496 1498 1501 1505 1508 1511 1515 1519 1522 1525 1528 1532 1535 1538 1541 1543 1545 1546
1478 1471 1473 1475 1471 1468 1471 1465 1468 1474 1486 1500 1500 1506 1500 1488 1488 1483 1482 1483 1485 1486 1488 1489 1491 1492 1494 1497 1500 1503 1506 1510 1514 1517 1520 1524 1527 1531 1534 1537 1539 1541 1544 1546
1469 1464 1466 1465 1461 1461 1462 1467 1475 1485 1495 1510 1505 1507 1504 1490 1484 1480 1479 1480 1482 1484 1485 1488 1489 1491 1493 1496 1499 1501 1504 1507 1512 1516 1519 1522 1525 1529 1532 1535 1537 1540 1542 1544
1473 1465 1459 1459 1463 1460 1463 1482 1503 1507 1516 1515 1503 1503 1499 1478 1474 1473 1474 1476 1479 1481 1483 1485 1487 1489 1491 1494 1497 1500 1503 1506 1510 1514 1517 1520 1524 1527 1530 1533 1535 1538 1540 1542
1483 1480 1460 1454 1459 1465 1466 1477 1504 1515 1519 1514 1505 1505 1488 1471 1469 1468 1470 1473 1476 1479 1481 1482 1484 1487 1490 1492 1495 1498 1501 1505 1508 1512 1515 1519 1522 1525 1528 1531 1534 1536 1539 1541
1475 1473 1452 1449 1449 1454 1465 1473 1475 1495 1504 1515 1510 1499 1482 1468 1466 1466 1467 1470 1473 1476 1478 1481 1483 1486 1488 1491 1493 1496 1500 1503 1507 1510 1513 1517 1520 1523 1526 1529 1532 1535 1537 1539
1458 1469 1455 1449 1448 1450 1454 1463 1480 1494 1510 1516 1511 1503 1494 1475 1468 1466 1467 1468 1470 1473 1476 1479 1482 1484 1487 1489 1492 1495 1499 1502 1505 1508 1512 1515 1518 1522 1524 1527 1530 1532 1535 1537
1451 1465 1461 1454 1456 1458 1458 1465 1475 1489 1494 1510 1516 1502 1470 1467 1465 1465 1465 1466 1468 1470 1473 1476 1479 1482 1485 1488 1491 1494 1497 1500 1503 1506 1510 1513 1517 1520 1523 1525 1528 1530 1532 1534
1451 1461 1469 1461 1449 1445 1451 1461 1473 1488 1493 1495 1502 1493 1458 1458 1459 1461 1462 1463 1466 1468 1470 1474 1477 1480 1484 1487 1489 1492 1495 1498 1501 1504 1508 1511 1514 1517 1520 1523 1525 1528 1530 1531
1451 1463 1476 1473 1466 1454 1454 1456 1463 1473 1485 1494 1498 1486 1457 1456 1457 1458 1460 1461 1463 1466 1469 1472 1475 1478 1481 1484 1487 1490 1493 1496 1499 1502 1505 1509 1512 1514 1517 1519 1522 1524 1526 1528
1447 1461 1470 1476 1469 1459 1458 1455 1458 1469 1483 1486 1480 1472 1462 1458 1457 1457 1457 1459 1461 1463 1466 1469 1472 1475 1478 1481 1484 1487 1490 1494 1497 1500 1503 1506 1508 1511 1514 1516 1518 1521 1523 1525
1451 1462 1458 1454 1450 1450 1451 1451 1453 1460 1465 1472 1468 1464 1457 1454 1454 1453 1454 1456 1459 1462 1464 1467 1469 1473 1476 1479 1482 1485 1488 1491 1494 1497 1499 1501 1505 1508 1510 1513 1515 1518 1520 1521
1455 1460 1457 1454 1447 1446 1448 1446 1446 1450 1453 1456 1457 1458 1448 1448 1451 1452 1452 1454 1456 1459 1461 1464 1467 1469 1473 1476 1479 1482 1485 1488 1491 1493 1495 1498 1502 1504 1507 1509 1512 1514 1516 1517
1457 1460 1462 1463 1453 1450 1456 1447 1445 1447 1445 1448 1454 1451 1447 1448 1450 1451 1451 1452 1455 1457 1459 1462 1465 1467 1470 1472 1475 1478 1481 1484 1487 1489 1492 1495 1498 1500 1503 1506 1508 1509 1511 1513
1455 1460 1464 1466 1464 1471 1455 1440 1438 1441 1441 1441 1443 1444 1444 1445 1448 1450 1452 1452 1454 1457 1458 1460 1463 1464 1467 1470 1473 1476 1479 1482 1484 1486 1489 1492 1495 1497 1500 1502 1504 1506 1507 1509
1450 1456 1463 1468 1469 1462 1448 1440 1440 1443 1445 1440 1441 1443 1445 1445 1448 1453 1454 1454 1455 1457 1458 1460 1462 1464 1465 1468 1470 1473 1476 1479 1481 1483 1485 1488 1491 1494 1496 1497 1499 1501 1502 1504
1450 1452 1460 1463 1467 1467 1452 1440 1438 1441 1449 1441 1440 1441 1443 1444 1454 1457 1456 1456 1456 1457 1458 1460 1462 1464 1465 1467 1469 1471 1473 1475 1477 1479 1482 1484 1487 1489 1490 1492 1494 1496 1498 1499
1457 1457 1459 1461 1462 1455 1446 1440 1439 1453 1450 1442 1440 1440 1442 1446 1451 1455 1455 1457 1458 1459 1460 1461 1463 1464 1466 1467 1469 1470 1471 1473 1476 1478 1480 1481 1483 1484 1486 1488 1490 1492 1494 1495
1458 1458 1459 1461 1463 1459 1444 1441 1445 1446 1441 1441 1441 1442 1443 1447 1451 1453 1456 1458 1459 1461 1462 1463 1464 1465 1466 1467 1468 1469 1471 1473 1475 1477 1478 1479 1480 1481 1483 1484 1486 1487 1489 1490
1455 1454 1454 1456 1457 1449 1445 1444 1443 1441 1441 1442 1443 1444 1444 1448 1452 1455 1458 1460 1462 1463 1465 1466 1466 1467 1468 1469 1470 1470 1473 1475 1475 1476 1477 1478 1479 1479 1480 1481 1482 1483 1485 1485
1451 1449 1451 1452 1450 1447 1444 1442 1442 1442 1443 1443 1444 1446 1448 1450 1454 1458 1461 1463 1465 1466 1467 1468 1469 1469 1470 1472 1473 1473 1475 1476 1476 1477 1478 1479 1479 1479 1479 1479 1480 1481 1482 1483
1451 1450 1451 1452 1449 1447 1445 1445 1445 1445 1446 1447 1449 1450 1452 1454 1458 1461 1463 1465 1467 1469 1470 1472 1472 1473 1474 1475 1476 1477 1478 1478 1478 1478 1479 1479 1479 1479 1479 1479 1480 1480 1481 1481
1450 1451 1451 1452 1449 1449 1450 1448 1448 1448 1450 1452 1452 1455 1458 1459 1461 1464 1466 1469 1471 1472 1474 1475 1476 1476 1477 1478 1479 1479 1480 1480 1480 1480 1480 1480 1480 1479 1479 1479 1480 1480 1480 1480